EW6754 Weather Reports


Display with metric or nautical units.
time (UTC)temp
F
wind
direction
speed
MPH
gust
MPH
rain 1hr
in
rain 24hr
in
rain mn
in
humidity
%
barometer
mb
20260506111552 76 149 0.0 0.0 0.00 0.00 0.00 75 1016.8
20260506110051 74 148 0.0 0.0 0.00 0.00 0.00 70 1016.7
20260506104555 74 148 0.0 0.0 0.00 0.00 0.00 72 1016.5
20260506103052 74 162 0.0 0.0 0.00 0.00 0.00 75 1016.3
20260506101546 74 162 0.0 0.0 0.00 0.00 0.00 75 1016.2
20260506094543 73 162 0.0 0.0 0.00 0.00 0.00 73 1016.0
20260506093042 73 162 0.0 0.0 0.00 0.00 0.00 72 1016.0
20260506091540 73 162 0.0 0.0 0.00 0.00 0.00 73 1016.0
20260506090039 73 221 0.0 0.0 0.00 0.00 0.00 75 1015.9
20260506084541 74 221 0.0 0.0 0.00 0.00 0.00 76 1015.7
20260506083037 74 167 0.0 0.0 0.00 0.00 0.00 76 1015.6
20260506081535 74 164 0.0 0.0 0.00 0.00 0.00 78 1015.4
20260506073029 75 164 0.0 0.0 0.00 0.00 0.00 78 1015.4
20260506071527 75 164 0.0 0.0 0.00 0.00 0.00 78 1015.5
20260506061518 76 212 0.0 0.0 0.00 0.00 0.00 79 1015.6
20260506044600 77 158 0.0 0.0 0.00 0.00 0.00 81 1016.0
20260506043058 77 177 0.0 0.0 0.00 0.00 0.00 81 1016.0
20260506041602 78 174 0.0 0.0 0.00 0.00 0.00 81 1016.1
20260506040108 78 174 0.0 0.0 0.00 0.00 0.00 81 1016.1
20260506034554 78 119 0.0 0.0 0.00 0.00 0.00 81 1016.1
20260506033055 78 105 0.0 0.0 0.00 0.00 0.00 81 1016.2
20260506031552 78 89 0.0 0.0 0.00 0.00 0.00 81 1016.3
20260506024556 77 194 0.0 0.0 0.00 0.00 0.00 81 1016.3
20260506023051 77 194 0.0 0.0 0.00 0.00 0.00 81 1016.3
20260506021556 77 194 0.0 0.0 0.00 0.00 0.00 81 1016.3
20260506020049 78 148 0.0 0.0 0.00 0.00 0.00 81 1016.2
20260506014557 79 106 0.0 0.0 0.00 0.00 0.00 81 1016.1
20260506013051 79 99 0.0 0.0 0.00 0.00 0.00 81 1016.1
20260506011547 79 115 0.0 0.0 0.00 0.00 0.00 81 1016.1
20260506010052 79 214 0.0 0.0 0.00 0.00 0.00 81 1016.0
20260506004551 80 104 0.0 0.0 0.00 0.00 0.00 81 1016.0
20260506003046 80 98 0.0 0.0 0.00 0.00 0.00 80 1015.7
20260506001546 80 129 0.0 0.0 0.00 0.00 0.00 80 1015.7
20260506000045 81 131 0.0 0.0 0.00 0.00 0.00 79 1015.6
20260505234544 81 91 0.0 0.0 0.00 0.00 0.00 79 1015.5
20260505233044 81 136 0.0 0.0 0.00 0.00 0.00 78 1015.5
20260505231543 82 178 0.0 1.0 0.00 0.00 0.00 76 1015.3
20260505230048 82 156 0.0 0.0 0.00 0.00 0.00 74 1015.2
20260505224546 83 113 0.0 0.0 0.00 0.00 0.00 73 1015.1
20260505223044 84 120 0.0 4.0 0.00 0.00 0.00 70 1015.0
20260505221540 84 116 0.0 0.0 0.00 0.00 0.00 69 1014.8
20260505220043 85 204 0.0 0.0 0.00 0.00 0.00 68 1014.5
20260505214539 86 86 0.0 9.0 0.00 0.00 0.00 67 1014.4
20260505213045 87 110 0.0 7.0 0.00 0.00 0.00 65 1014.2
20260505211542 87 127 0.0 0.0 0.00 0.00 0.00 64 1014.0
20260505210037 87 114 0.0 6.0 0.00 0.00 0.00 63 1014.1
20260505204536 88 121 0.0 8.0 0.00 0.00 0.00 61 1014.0
20260505203041 88 158 1.0 12.0 0.00 0.00 0.00 59 1014.2
20260505201535 88 160 0.0 0.0 0.00 0.00 0.00 59 1014.1
20260505200033 89 157 0.0 8.0 0.00 0.00 0.00 57 1014.1
20260505194532 89 121 1.0 11.0 0.00 0.00 0.00 58 1014.2
20260505193038 89 113 0.0 8.0 0.00 0.00 0.00 59 1014.2
20260505191528 90 95 0.0 9.0 0.00 0.00 0.00 58 1014.3
20260505190038 90 157 0.0 10.0 0.00 0.00 0.00 58 1014.4
20260505184529 90 172 0.0 2.0 0.00 0.00 0.00 60 1014.5
20260505183027 89 124 1.0 12.0 0.00 0.00 0.00 58 1014.7
20260505181524 90 111 0.0 10.0 0.00 0.00 0.00 58 1014.8
20260505180033 89 128 0.0 12.0 0.00 0.00 0.00 60 1015.1
20260505174520 89 152 0.0 11.0 0.00 0.00 0.00 61 1015.3
20260505173019 89 111 0.0 8.0 0.00 0.00 0.00 61 1015.3
20260505171517 89 103 1.0 13.0 0.00 0.00 0.00 61 1015.4
20260505170018 86 150 0.0 8.0 0.00 0.00 0.00 69 1015.6
20260505164515 88 169 2.0 13.0 0.00 0.00 0.00 66 1015.8
20260505163015 88 129 1.0 12.0 0.00 0.00 0.00 64 1015.7
20260505161613 88 184 2.0 15.0 0.00 0.00 0.00 66 1015.7
20260505153010 88 134 0.0 15.0 0.00 0.00 0.00 66 1015.7
20260505151509 88 124 0.0 15.0 0.00 0.00 0.00 65 1015.7
20260505140107 83 167 2.0 9.0 0.00 0.00 0.00 75 1016.0
20260505124554 83 150 0.0 3.0 0.00 0.00 0.00 79 1015.8
20260505123057 82 195 0.0 0.0 0.00 0.00 0.00 81 1015.8
20260505121544 80 82 0.0 0.0 0.00 0.00 0.00 81 1015.7
20260505120052 79 164 0.0 0.0 0.00 0.00 0.00 81 1015.7
20260505114541 79 148 0.0 0.0 0.00 0.00 0.00 81 1015.7
20260505113038 79 156 0.0 0.0 0.00 0.00 0.00 81 1015.5